Time,TemperatureF,DewpointF,PressureIn,WindDirection,WindDirectionDegrees,WindSpeedMPH,WindSpeedGustMPH,Humidity,HourlyPrecipIn,Conditions,Clouds,dailyrainin,SoftwareType,DateUTC
2013-05-24 00:11:00,56.1,49.0,30.15,West,265,4.0,13.0,77,0.00,,,0.00,weatherlink.com 1.10,2013-05-24 05:11:00,
2013-05-24 00:27:00,55.7,49.0,30.17,North,349,0.0,7.0,78,0.00,,,0.00,weatherlink.com 1.10,2013-05-24 05:27:00,
2013-05-24 00:42:00,55.6,49.0,30.16,NNW,328,3.0,9.0,79,0.00,,,0.00,weatherlink.com 1.10,2013-05-24 05:42:00,
2013-05-24 00:57:00,55.5,49.0,30.17,NNW,332,2.0,9.0,78,0.00,,,0.00,weatherlink.com 1.10,2013-05-24 05:57:00,
2013-05-24 01:12:00,55.5,49.0,30.18,East,82,4.0,9.0,78,0.00,,,0.00,weatherlink.com 1.10,2013-05-24 06:12:00,
2013-05-24 01:27:00,55.3,49.0,30.19,ENE,64,0.0,7.0,79,0.00,,,0.00,weatherlink.com 1.10,2013-05-24 06:27:00,
2013-05-24 01:42:00,55.2,48.0,30.18,ENE,61,1.0,8.0,78,0.00,,,0.00,weatherlink.com 1.10,2013-05-24 06:42:00,
2013-05-24 01:57:00,54.6,48.0,30.20,NNE,24,0.0,7.0,78,0.00,,,0.00,weatherlink.com 1.10,2013-05-24 06:57:00,
2013-05-24 02:14:00,54.0,48.0,30.20,NNE,16,1.0,6.0,80,0.00,,,0.00,weatherlink.com 1.10,2013-05-24 07:14:00,
2013-05-24 02:29:00,53.8,47.0,30.20,West,272,2.0,9.0,79,0.00,,,0.00,weatherlink.com 1.10,2013-05-24 07:29:00,
2013-05-24 02:44:00,53.3,47.0,30.21,NW,322,4.0,6.0,80,0.00,,,0.00,weatherlink.com 1.10,2013-05-24 07:44:00,
2013-05-24 02:59:00,52.6,47.0,30.21,WNW,294,2.0,6.0,81,0.00,,,0.00,weatherlink.com 1.10,2013-05-24 07:59:00,
2013-05-24 03:14:00,51.8,47.0,30.21,NW,314,0.0,4.0,82,0.00,,,0.00,weatherlink.com 1.10,2013-05-24 08:14:00,
2013-05-24 03:30:00,51.0,46.0,30.21,NNE,26,0.0,1.0,84,0.00,,,0.00,weatherlink.com 1.10,2013-05-24 08:30:00,
2013-05-24 03:45:00,50.4,46.0,30.21,WNW,301,0.0,2.0,85,0.00,,,0.00,weatherlink.com 1.10,2013-05-24 08:45:00,
2013-05-24 04:00:00,49.8,46.0,30.22,WNW,301,0.0,0.0,87,0.00,,,0.00,weatherlink.com 1.10,2013-05-24 09:00:00,
2013-05-24 04:15:00,49.1,46.0,30.23,WNW,301,0.0,1.0,88,0.00,,,0.00,weatherlink.com 1.10,2013-05-24 09:15:00,
2013-05-24 04:30:00,48.3,45.0,30.22,WNW,301,0.0,0.0,89,0.00,,,0.00,weatherlink.com 1.10,2013-05-24 09:30:00,
2013-05-24 04:45:00,47.6,45.0,30.23,WNW,301,0.0,0.0,90,0.00,,,0.00,weatherlink.com 1.10,2013-05-24 09:45:00,
2013-05-24 05:00:00,46.9,45.0,30.24,WNW,301,0.0,0.0,91,0.00,,,0.00,weatherlink.com 1.10,2013-05-24 10:00:00,
2013-05-24 05:14:00,46.4,44.0,30.24,WNW,301,0.0,0.0,92,0.00,,,0.00,weatherlink.com 1.10,2013-05-24 10:14:00,
2013-05-24 05:30:00,46.2,44.0,30.25,WNW,300,0.0,1.0,93,0.00,,,0.00,weatherlink.com 1.10,2013-05-24 10:30:00,
2013-05-24 05:45:00,46.5,45.0,30.27,NW,321,0.0,1.0,94,0.00,,,0.00,weatherlink.com 1.10,2013-05-24 10:45:00,
2013-05-24 06:00:00,46.6,45.0,30.26,West,277,0.0,4.0,94,0.00,,,0.00,weatherlink.com 1.10,2013-05-24 11:00:00,
2013-05-24 06:15:00,46.8,45.0,30.27,WNW,300,0.0,1.0,94,0.00,,,0.00,weatherlink.com 1.10,2013-05-24 11:15:00,
2013-05-24 06:30:00,47.6,46.0,30.27,NW,321,1.0,5.0,93,0.00,,,0.00,weatherlink.com 1.10,2013-05-24 11:30:00,
2013-05-24 06:45:00,49.2,46.0,30.28,NNW,340,2.0,4.0,89,0.00,,,0.00,weatherlink.com 1.10,2013-05-24 11:45:00,
2013-05-24 07:00:00,51.3,47.0,30.29,NNW,328,2.0,5.0,84,0.00,,,0.00,weatherlink.com 1.10,2013-05-24 12:00:00,
2013-05-24 07:15:00,52.4,47.0,30.30,NW,304,0.0,4.0,82,0.00,,,0.00,weatherlink.com 1.10,2013-05-24 12:15:00,
2013-05-24 07:30:00,52.9,47.0,30.30,NNE,32,1.0,5.0,79,0.00,,,0.00,weatherlink.com 1.10,2013-05-24 12:30:00,
2013-05-24 07:45:00,54.0,47.0,30.31,ENE,63,0.0,4.0,78,0.00,,,0.00,weatherlink.com 1.10,2013-05-24 12:45:00,
2013-05-24 08:00:00,54.5,47.0,30.32,West,269,2.0,6.0,75,0.00,,,0.00,weatherlink.com 1.10,2013-05-24 13:00:00,
2013-05-24 08:15:00,55.8,47.0,30.33,NNE,18,3.0,7.0,73,0.00,,,0.00,weatherlink.com 1.10,2013-05-24 13:15:00,
2013-05-24 08:30:00,55.2,47.0,30.34,ENE,61,2.0,7.0,73,0.00,,,0.00,weatherlink.com 1.10,2013-05-24 13:30:00,
2013-05-24 08:45:00,55.1,48.0,30.34,NNW,332,0.0,5.0,76,0.00,,,0.00,weatherlink.com 1.10,2013-05-24 13:45:00,
2013-05-24 09:00:00,55.6,47.0,30.34,NNE,29,3.0,5.0,74,0.00,,,0.00,weatherlink.com 1.10,2013-05-24 14:00:00,
2013-05-24 09:15:00,56.1,49.0,30.35,WNW,303,3.0,7.0,76,0.00,,,0.00,weatherlink.com 1.10,2013-05-24 14:15:00,
2013-05-24 09:30:00,56.6,48.0,30.35,North,2,3.0,8.0,72,0.00,,,0.00,weatherlink.com 1.10,2013-05-24 14:30:00,
2013-05-24 09:45:00,57.3,49.0,30.34,SW,221,0.0,7.0,73,0.00,,,0.00,weatherlink.com 1.10,2013-05-24 14:45:00,
2013-05-24 10:00:00,58.0,49.0,30.35,WSW,239,0.0,4.0,71,0.00,,,0.00,weatherlink.com 1.10,2013-05-24 15:00:00,
2013-05-24 10:15:00,58.9,49.0,30.35,WNW,301,0.0,4.0,70,0.00,,,0.00,weatherlink.com 1.10,2013-05-24 15:15:00,
2013-05-24 10:30:00,59.5,49.0,30.34,NE,45,0.0,5.0,69,0.00,,,0.00,weatherlink.com 1.10,2013-05-24 15:30:00,
2013-05-24 10:45:00,60.1,49.0,30.35,NW,324,0.0,8.0,68,0.00,,,0.00,weatherlink.com 1.10,2013-05-24 15:45:00,
2013-05-24 11:00:00,61.2,50.0,30.34,WNW,282,1.0,4.0,66,0.00,,,0.00,weatherlink.com 1.10,2013-05-24 16:00:00,
2013-05-24 11:15:00,61.7,48.0,30.34,NE,35,3.0,5.0,62,0.00,,,0.00,weatherlink.com 1.10,2013-05-24 16:15:00,
2013-05-24 11:30:00,61.5,47.0,30.34,North,2,0.0,7.0,59,0.00,,,0.00,weatherlink.com 1.10,2013-05-24 16:30:00,
2013-05-24 11:45:00,62.3,48.0,30.34,ENE,70,3.0,6.0,61,0.00,,,0.00,weatherlink.com 1.10,2013-05-24 16:45:00,
2013-05-24 12:00:00,62.8,49.0,30.34,NE,38,2.0,5.0,60,0.00,,,0.00,weatherlink.com 1.10,2013-05-24 17:00:00,
2013-05-24 12:16:00,63.7,47.0,30.34,NW,305,3.0,10.0,54,0.00,,,0.00,weatherlink.com 1.10,2013-05-24 17:16:00,
2013-05-24 12:31:00,64.3,47.0,30.33,WNW,297,3.0,5.0,54,0.00,,,0.00,weatherlink.com 1.10,2013-05-24 17:31:00,
2013-05-24 12:46:00,64.9,47.0,30.34,North,353,1.0,6.0,52,0.00,,,0.00,weatherlink.com 1.10,2013-05-24 17:46:00,
2013-05-24 13:01:00,65.4,47.0,30.34,North,353,3.0,7.0,52,0.00,,,0.00,weatherlink.com 1.10,2013-05-24 18:01:00,
2013-05-24 13:16:00,66.4,49.0,30.34,WSW,249,1.0,7.0,53,0.00,,,0.00,weatherlink.com 1.10,2013-05-24 18:16:00,
2013-05-24 13:31:00,67.3,47.0,30.33,West,259,3.0,10.0,49,0.00,,,0.00,weatherlink.com 1.10,2013-05-24 18:31:00,
2013-05-24 13:46:00,67.5,47.0,30.33,North,1,2.0,7.0,48,0.00,,,0.00,weatherlink.com 1.10,2013-05-24 18:46:00,
2013-05-24 14:01:00,67.5,46.0,30.33,NE,44,3.0,8.0,46,0.00,,,0.00,weatherlink.com 1.10,2013-05-24 19:01:00,
2013-05-24 14:16:00,67.8,46.0,30.32,NNE,22,0.0,11.0,45,0.00,,,0.00,weatherlink.com 1.10,2013-05-24 19:16:00,
2013-05-24 14:31:00,69.7,47.0,30.32,North,359,2.0,6.0,44,0.00,,,0.00,weatherlink.com 1.10,2013-05-24 19:31:00,
2013-05-24 14:46:00,70.1,45.0,30.32,North,353,1.0,7.0,40,0.00,,,0.00,weatherlink.com 1.10,2013-05-24 19:46:00,
2013-05-24 15:01:00,69.6,43.0,30.32,North,359,1.0,8.0,38,0.00,,,0.00,weatherlink.com 1.10,2013-05-24 20:01:00,
2013-05-24 15:16:00,70.5,44.0,30.31,ENE,68,4.0,8.0,39,0.00,,,0.00,weatherlink.com 1.10,2013-05-24 20:16:00,
2013-05-24 15:31:00,70.5,41.0,30.30,NNE,33,5.0,11.0,35,0.00,,,0.00,weatherlink.com 1.10,2013-05-24 20:31:00,
2013-05-24 15:46:00,70.3,45.0,30.30,ENE,59,4.0,10.0,40,0.00,,,0.00,weatherlink.com 1.10,2013-05-24 20:46:00,
2013-05-24 16:01:00,70.9,44.0,30.29,NW,319,1.0,7.0,38,0.00,,,0.00,weatherlink.com 1.10,2013-05-24 21:01:00,
2013-05-24 16:16:00,71.0,43.0,30.29,ENE,67,0.0,7.0,37,0.00,,,0.00,weatherlink.com 1.10,2013-05-24 21:16:00,
2013-05-24 16:31:00,70.6,46.0,30.29,NNE,33,2.0,8.0,41,0.00,,,0.00,weatherlink.com 1.10,2013-05-24 21:31:00,
2013-05-24 16:46:00,71.2,43.0,30.28,NE,35,5.0,7.0,37,0.00,,,0.00,weatherlink.com 1.10,2013-05-24 21:46:00,
2013-05-24 17:01:00,71.2,43.0,30.28,NE,36,3.0,7.0,37,0.00,,,0.00,weatherlink.com 1.10,2013-05-24 22:01:00,
2013-05-24 17:16:00,71.5,44.0,30.27,NE,49,2.0,6.0,38,0.00,,,0.00,weatherlink.com 1.10,2013-05-24 22:16:00,
2013-05-24 17:31:00,71.4,44.0,30.27,North,356,0.0,4.0,38,0.00,,,0.00,weatherlink.com 1.10,2013-05-24 22:31:00,
2013-05-24 17:46:00,71.0,45.0,30.27,NE,37,0.0,3.0,40,0.00,,,0.00,weatherlink.com 1.10,2013-05-24 22:46:00,
2013-05-24 18:01:00,70.3,45.0,30.27,NNE,25,0.0,4.0,41,0.00,,,0.00,weatherlink.com 1.10,2013-05-24 23:01:00,
2013-05-24 18:16:00,69.8,45.0,30.26,North,349,0.0,2.0,41,0.00,,,0.00,weatherlink.com 1.10,2013-05-24 23:16:00,
2013-05-24 18:31:00,69.1,47.0,30.25,ENE,68,1.0,3.0,46,0.00,,,0.00,weatherlink.com 1.10,2013-05-24 23:31:00,
2013-05-24 18:46:00,68.1,49.0,30.26,NNE,26,0.0,1.0,50,0.00,,,0.00,weatherlink.com 1.10,2013-05-24 23:46:00,
2013-05-24 19:01:00,66.8,49.0,30.26,NNE,26,0.0,1.0,54,0.00,,,0.00,weatherlink.com 1.10,2013-05-25 00:01:00,
2013-05-24 19:16:00,65.2,50.0,30.25,NNE,26,0.0,1.0,59,0.00,,,0.00,weatherlink.com 1.10,2013-05-25 00:16:00,
2013-05-24 19:31:00,63.4,50.0,30.25,NNE,26,0.0,0.0,62,0.00,,,0.00,weatherlink.com 1.10,2013-05-25 00:31:00,
2013-05-24 19:46:00,61.7,51.0,30.25,NNE,26,0.0,0.0,67,0.00,,,0.00,weatherlink.com 1.10,2013-05-25 00:46:00,
2013-05-24 20:01:00,60.2,50.0,30.25,NNE,26,0.0,0.0,69,0.00,,,0.00,weatherlink.com 1.10,2013-05-25 01:01:00,
2013-05-24 20:16:00,58.7,50.0,30.25,NNE,26,0.0,0.0,72,0.00,,,0.00,weatherlink.com 1.10,2013-05-25 01:16:00,
2013-05-24 20:31:00,57.1,50.0,30.24,NNE,26,0.0,0.0,77,0.00,,,0.00,weatherlink.com 1.10,2013-05-25 01:31:00,
2013-05-24 20:46:00,55.8,50.0,30.25,NNE,26,0.0,0.0,80,0.00,,,0.00,weatherlink.com 1.10,2013-05-25 01:46:00,
2013-05-24 21:01:00,54.6,49.0,30.26,NNE,26,0.0,0.0,81,0.00,,,0.00,weatherlink.com 1.10,2013-05-25 02:01:00,
2013-05-24 21:16:00,53.5,49.0,30.27,NNE,26,0.0,0.0,83,0.00,,,0.00,weatherlink.com 1.10,2013-05-25 02:16:00,
2013-05-24 21:31:00,52.6,48.0,30.28,NNE,26,0.0,0.0,85,0.00,,,0.00,weatherlink.com 1.10,2013-05-25 02:31:00,
2013-05-24 21:46:00,51.8,48.0,30.28,NNE,26,0.0,0.0,87,0.00,,,0.00,weatherlink.com 1.10,2013-05-25 02:46:00,
2013-05-24 22:01:00,51.0,48.0,30.28,NNE,26,0.0,0.0,88,0.00,,,0.00,weatherlink.com 1.10,2013-05-25 03:01:00,
2013-05-24 22:16:00,50.5,48.0,30.29,NNE,26,0.0,0.0,90,0.00,,,0.00,weatherlink.com 1.10,2013-05-25 03:16:00,
2013-05-24 22:31:00,50.0,48.0,30.30,NNE,26,0.0,0.0,91,0.00,,,0.00,weatherlink.com 1.10,2013-05-25 03:31:00,
2013-05-24 22:46:00,49.4,47.0,30.30,NNE,26,0.0,0.0,91,0.00,,,0.00,weatherlink.com 1.10,2013-05-25 03:46:00,
2013-05-24 23:01:00,49.0,47.0,30.30,NNE,26,0.0,0.0,92,0.00,,,0.00,weatherlink.com 1.10,2013-05-25 04:01:00,
2013-05-24 23:16:00,48.6,47.0,30.30,NNE,26,0.0,0.0,93,0.00,,,0.00,weatherlink.com 1.10,2013-05-25 04:16:00,
2013-05-24 23:31:00,48.3,46.0,30.30,NNE,26,0.0,0.0,93,0.00,,,0.00,weatherlink.com 1.10,2013-05-25 04:31:00,
2013-05-24 23:46:00,48.0,46.0,30.30,NNE,26,0.0,0.0,93,0.00,,,0.00,weatherlink.com 1.10,2013-05-25 04:46:00,